GOES 11 [-]

Last updated on July 6, 2021, 3:23 p.m. UTC

1 26352U 00022A   21186.53778668  .00000004  00000-0  00000-0 0  9994
2 26352   7.9550  62.0335 0001695  20.7863 296.6130  0.99040382 34562
UTC
Height (km)
Latitude
Longitude
Inclination
Orbital Period
UTC large
Height (km)
Speed (km/s)
/
Latitude / Longitude
Inclination (degrees)
Orbital Period (minutes)
Azimuth
Elevation
Range (km)
Doppler Factor
iOS Compass Heading
iOS Angle